Location: Spruce Knob
(38.6995°N, 79.5330°W)
Time: 13:50:41
(UTC-04:00)

BEESAT - Pass Details

Date: 06 April 2023
Orbit: 696 x 706 km, 98.5° (Epoch: 02 June)

Event Time Altitude Azimuth Distance (km) Brightness Sun altitude
Rises 21:21:21 0° 31° (NNE) 3,098 ? -18.5°
Reaches altitude 10° 21:24:16 10° 49° (NE) 2,172 ? -19.0°
Enters shadow 21:24:27 11° 51° (NE) 2,121 ? -19.1°
